[Iaude] MPEC W27: 2023 WP [a=1.81,e=0.58,i=6.2,H=23.0]
    mpec at marsden.cfa.harvard.edu 
    mpec at marsden.cfa.harvard.edu
       
    Sat Nov 18 21:37:55 EST 2023
    
    
  
M.P.E.C. 2023-W27                             Issued 2023 November 19, 02:36 UT
     The Minor Planet Electronic Circulars contain information on unusual
         minor planets, routine data on comets and natural satellites,
         and occasional editorial announcements.  They are published
    on behalf of Division F of the International Astronomical Union by the
          Minor Planet Center, Smithsonian Astrophysical Observatory,
                          Cambridge, MA 02138, U.S.A.
			  
             Prepared using the Tamkin Foundation Computer Network
                              MPC at CFA.HARVARD.EDU
            URL https://www.minorplanetcenter.net/    ISSN 1523-6714
                                    2023 WP                                     
Observations:
     K23W00P* C2023 11 17.42723404 50 50.124+04 40 53.28         20.50wXEW027F52
     K23W00P  C2023 11 17.43895304 50 46.801+04 40 54.49         20.39wXEW027F52
     K23W00P  C2023 11 17.45064104 50 43.505+04 40 55.70         20.87wXEW027F52
     K23W00P  C2023 11 17.46227004 50 40.214+04 40 56.81         20.81wXEW027F52
     K23W00P  C2023 11 17.52430804 50 22.709+04 41 02.64         20.09GVEW027F52
     K23W00P  C2023 11 17.52495004 50 22.536+04 41 02.73         20.25GVEW027F52
     K23W00P KB2023 11 17.97942004 48 27.80 +04 41 31.0          19.9 GXEW027958
     K23W00P KB2023 11 17.98535104 48 26.31 +04 41 31.9          20.3 GXEW027958
     K23W00P KB2023 11 17.99128704 48 24.66 +04 41 33.2          19.7 GXEW027958
     K23W00P 1C2023 11 18.01396 04 48 18.11 +04 41 31.3          20.6 VXEW027033
     K23W00P 1C2023 11 18.01471 04 48 17.93 +04 41 31.4          20.6 VXEW027033
     K23W00P 1C2023 11 18.01546 04 48 17.72 +04 41 31.7          20.8 VXEW027033
     K23W00P KC2023 11 18.03099604 48 13.51 +04 41 36.4          20.4 GVEW027L01
     K23W00P KC2023 11 18.03268104 48 13.07 +04 41 36.4          20.7 GVEW027L01
     K23W00P KC2023 11 18.03436304 48 12.59 +04 41 36.9          20.3 GVEW027L01
     K23W00P KC2023 11 18.03604604 48 12.18 +04 41 37.3          20.6 GVEW027L01
     K23W00P KC2023 11 18.03836104 48 11.54 +04 41 37.6          20.7 GVEW027L01
     K23W00P KC2023 11 18.08078 04 48 00.55 +04 41 41.3          20.5 GVEW027204
     K23W00P HC2023 11 18.10400 04 47 54.50 +04 41 43.6                VEW027204
     K23W00P KC2023 11 18.27062204 47 14.64 +04 42 07.3                VEW027H21
     K23W00P KC2023 11 18.27202104 47 14.29 +04 42 07.4          21.4 GVEW027H21
     K23W00P KC2023 11 18.27761504 47 12.84 +04 42 08.2          20.7 GVEW027H21
     K23W00P KC2023 11 18.28330204 47 11.35 +04 42 08.9          20.0 GVEW027H21
     K23W00P KB2023 11 18.29717 04 47 08.07 +04 42 10.8          20.3 GXEW027H36
     K23W00P KB2023 11 18.32058 04 47 01.94 +04 42 13.5          20.5 GXEW027H36
     K23W00P KB2023 11 18.33176 04 46 59.01 +04 42 14.9          20.5 GXEW027H36
     K23W00P KB2023 11 18.34127 04 46 56.59 +04 42 15.4          20.4 GVEW027734
     K23W00P KB2023 11 18.34705 04 46 55.05 +04 42 16.1          20.5 GVEW027734
     K23W00P KB2023 11 18.36438 04 46 50.60 +04 42 17.8          20.0 GVEW027734
     K23W00P KC2023 11 19.06325 04 44 04.96 +04 43 39.7          19.9 GVEW027104
     K23W00P KC2023 11 19.07501 04 44 02.09 +04 43 39.9                VEW027104
Observer details:
033 Karl Schwarzschild Observatory, Tautenburg.  Observers S. Melnikov, C.
    Hogner, F. Ludwig, M. Hartmann, B. Stecklum.  Measurer B. Stecklum.
    1.34-m f/3 Schmidt + CCD.
104 San Marcello Pistoiese.  Observers P. Bacci, M. Maestripieri.  Measurer P.
    Bacci.  0.60-m f/4 reflector + CCD.
204 Schiaparelli Observatory.  Observers L. Buzzi, G. Galli.  0.84-m f/3.5
    reflector + CCD.
734 Farpoint Observatory, Eskridge.  Observers D. Cromer, G. Hug, D. Goodin,
    R. Valentine.  Measurer D. Cromer.  0.69-m f/3.54 reflector + CMO.
958 Observatoire de Dax.  Observer P. Dupouy.  0.50-m f/4.5 Reflector + CMO.
F52 Pan-STARRS 2, Haleakala.  Observers J. Herman, T. Lowe, P. Minguez, A.
    Schultz, I. Smith.  Measurers K. Chambers, T. de Boer, J. Fairlamb, H.
    Gao, M. Huber, C.-C. Lin, E. Magnier, Y. Ramanjooloo, R. Wainscoat, R.
    Weryk.  1.8-m Ritchey-Chretien + CCD.
H21 Astronomical Research Observatory, Westfield.  Observer R. Holmes.
    Measurers T. Linder, R. Holmes, L. Horn.  0.76-m f/3.0 astrograph + CCD.
H36 Sandlot Observatory, Scranton.  Observer G. Hug.  0.56-m f/4.8 reflector +
    CMO.
L01 Visnjan Observatory, Tican.  Observer K. Korlevic.  1.0-m f/2.9 reflector
    + CCD.
Orbital elements:
2023 WP                                                  Earth MOID = 0.0155 AU
Epoch 2023 Sept. 13.0 TT = JDT 2460200.5                MPC                     
M 358.68498              (2000.0)            P               Q                  
n   0.40527629     Peri.  118.96927     +0.87166425     +0.48673744             
a   1.8084309      Node   212.00316     -0.47884817     +0.82086699             
e   0.5828240      Incl.    6.21151     -0.10443111     +0.29877090             
P   2.43           H   23.07          G   0.15           U   9                  
Residuals in seconds of arc
231117 F52  0.2+  0.2+    231118 033  0.0   0.2+    231118 H21  0.1+  0.2+
231117 F52  0.0   0.2+    231118 L01  0.0   0.3-    231118 H36  0.2+  0.0
231117 F52  0.2+  0.2+    231118 L01  0.1+  0.5-    231118 H36  0.1-  0.1+
231117 F52  0.1+  0.1+    231118 L01  0.4-  0.2-    231118 H36  0.4-  0.2+
231117 F52  0.1-  0.0     231118 L01  0.1+  0.0     231118 734  0.2+  0.2-
231117 F52  0.0   0.1+    231118 L01  0.3-  0.1+    231118 734  0.3-  0.2-
231117 958  0.3-  1.0-    231118 204  0.1-  0.3-    231118 734  0.3+  0.4-
231117 958  1.0+  0.8-    231118 204  0.5+  0.4-    231119 104  0.0   0.5+
231117 958  0.1-  0.2-    231118 H21  0.3-  0.0     231119 104  0.1-  0.7-
231118 033  0.1-  0.1-    231118 H21  0.0   0.0
231118 033  0.2+  0.0     231118 H21  0.2+  0.1+
Ephemeris:
2023 WP                  a,e,i = 1.81, 0.58, 6                   q = 0.7544
Date    TT    R. A. (2000) Decl.     Delta      r    Elong.  Phase     V
2023 10 20    12 56 06.9 -00 50 50   0.09630 0.9027    13.6   164.9    30.9
...
2023 11 04    06 56 38.7 +04 33 11   0.07891 1.0274   114.7    61.3    19.8
...
2023 11 12    05 21 31.6 +04 36 47   0.1308  1.0991   144.5    31.6    20.2
...
2023 11 18    04 48 21.9 +04 42 05   0.1780  1.1539   156.3    20.2    20.6
2023 11 19    04 44 20.5 +04 44 01   0.1863  1.1630   157.7    18.8    20.7
2023 11 20    04 40 37.8 +04 46 14   0.1948  1.1722   159.0    17.6    20.8
...
2023 11 26    04 23 22.9 +05 05 10   0.2482  1.2272   163.6    13.1    21.3
...
2023 12 04    04 09 17.8 +05 42 31   0.3264  1.3002   162.1    13.5    22.0
...
2023 12 19    03 58 19.9 +07 17 32   0.4958  1.4344   149.8    20.2    23.3
A. U. Tomatic                (C) Copyright 2023 MPC           M.P.E.C. 2023-W27
    
    
More information about the Iaude
mailing list